[[{"header":{"parameterUnit":"m.s-1","parameterCategory":1,"la1":30.2991,"la2":30.254,"lo1":-89.0895,"lo2":-89.0444,"dy":0.0017,"dx":0.0017,"nx":28,"ny":28,"refTime":"2026-02-05T09:00:00:Z","depth":0,"parameterNumber":2,"parameterNumberName":"U-component_of_WINDS"},"data":[0,0,0,0,0,0,0,0,0,0,0,0,0,0,0,0,0,0,0,0,0,0,0,0,0,0,0,0,0,0,0,0,0,0,0,0,0,0,0,0,0,0,0,0,0,0,0,0,0,0,0,0,0,0,0,0,0,0,4.2767,4.2767,0,4.2824,4.2825,4.2825,4.2751,4.2749,4.2746,4.2743,4.2805,4.2809,4.2813,0,0,0,0,0,0,0,0,0,0,0,0,0,4.2599,4.2603,4.2767,4.2768,4.2768,4.2824,4.2825,4.2826,4.2752,4.2748,4.2745,4.2742,4.2804,4.2809,4.2814,0,0,0,0,0,0,0,0,0,0,0,0,0,4.2666,4.2604,4.2767,4.2738,4.2736,4.2824,4.2825,4.2826,4.2752,4.2748,4.2744,4.274,4.2802,4.2808,4.2814,4.2934,0,0,4.2833,4.2836,0,0,0,0,0,0,0,0,4.2662,4.2672,4.2742,4.274,4.2738,4.2776,4.2788,4.2862,4.2753,4.2746,4.2743,4.2739,4.2799,4.2805,4.2825,4.2937,4.2939,4.2834,4.2838,4.284,4.2842,0,0,0,0,0,0,0,4.2658,4.2669,4.2789,4.2743,4.2741,4.2724,4.2729,4.2802,4.2795,4.2747,4.2741,4.2749,4.2797,4.2819,4.2826,4.294,4.2834,4.2839,4.2843,4.2846,4.3158,4.3162,0,0,0,0,0,0,4.2656,4.2666,4.2788,4.2791,4.2689,4.2731,4.2736,4.2768,4.2794,4.2794,4.2752,4.2745,4.281,4.2819,4.2828,4.2972,4.284,4.2846,4.285,4.3153,4.3159,4.3164,0,0,0,0,0,0,4.2652,4.2667,4.2785,4.2727,4.2741,4.2738,4.2774,4.2771,4.2793,4.2798,4.2797,4.2776,4.2808,4.2819,4.2909,4.2973,4.2849,4.2855,4.3148,4.3155,4.3161,4.326,0,0,0,0,0,0,4.2648,4.2666,4.271,4.2729,4.2744,4.2864,4.2778,4.2775,4.2804,4.2795,4.282,4.282,4.2805,4.29,4.2915,4.2979,4.2859,4.3142,4.3151,4.3159,4.3251,4.3269,4.3285,0,0,0,0,0,4.2642,4.2735,4.2713,4.2728,4.2799,4.2868,4.2877,4.2857,4.2809,4.2854,4.2858,4.2819,4.2964,4.291,4.2926,4.2993,4.3138,4.3149,4.3158,4.3243,4.3266,4.3284,0,0,0,0,0,0,4.2724,4.2737,4.2712,4.2814,4.284,4.2855,4.2911,4.2881,4.2922,4.2912,4.2888,4.2894,4.299,4.3001,4.294,4.3113,4.3043,4.3057,4.3102,4.3123,4.314,4.3136,4.2865,0,0,0,0,0,4.2754,4.2808,4.2817,4.2906,4.292,4.2914,4.2943,4.2926,4.2953,4.2964,4.2974,4.3003,4.3055,4.309,4.3138,4.3252,4.3258,4.3307,4.3324,4.3338,4.3351,4.3416,4.3438,4.3197,4.3197,4.3197,0,0,4.2817,4.283,4.2866,4.2923,4.2941,4.2999,4.2924,4.2987,4.3031,4.2974,4.3059,4.3069,4.3099,4.3203,4.3249,4.3215,4.3419,4.3351,4.3362,4.3367,4.3428,4.3451,4.3472,4.3204,4.3203,4.3202,0,0,4.296,4.2975,4.3052,4.3073,4.3102,4.3098,4.3117,4.3137,4.3141,4.3227,4.3186,4.3239,4.3328,4.3353,4.3377,4.3535,4.3502,4.3552,4.3641,4.3704,4.3723,4.374,4.3799,4.382,4.3564,4.3565,4.3565,0,4.3034,4.3118,4.3096,4.3164,4.3192,4.3143,4.3223,4.3245,4.3289,4.331,4.3271,4.3385,4.3401,4.3512,4.3551,4.3572,4.3595,4.3548,4.3722,4.3739,4.3754,4.381,4.3832,4.3571,4.357,4.3569,4.3569,0,4.321,4.3269,4.3328,4.3373,4.3407,4.3481,4.3472,4.351,4.3491,4.3492,4.3583,4.3602,4.3655,4.368,4.3662,4.3789,4.3767,4.3726,4.3655,4.3784,4.3836,4.3856,4.3579,4.3577,4.3575,4.3574,0,0,4.3403,4.3437,4.3459,4.348,4.3511,4.3558,4.3631,4.3682,4.3717,4.375,4.3812,4.3892,4.3855,4.3882,4.3867,4.3923,4.4051,4.3875,4.3876,4.3909,4.4196,4.4227,4.4252,4.4029,4.4033,4.4036,4.4194,0,4.3548,4.3673,4.3657,4.3778,4.3835,4.3792,4.3857,4.3884,4.3888,4.3938,4.3943,4.4,4.3946,4.3963,4.4017,4.4024,4.4108,4.4012,4.4089,4.4092,4.4083,4.4279,4.4311,4.4458,4.4214,4.4217,4.422,0,4.3733,4.3774,4.39,4.3926,4.3949,4.4007,4.4055,4.4103,4.4135,4.4134,4.4168,4.4144,4.422,4.415,4.4256,4.4191,4.4222,4.4232,4.4237,4.4243,4.4163,4.4292,4.4505,4.4527,4.4251,4.4249,4.4246,0,4.3864,4.3951,4.4038,4.4058,4.4089,4.4131,4.4147,4.4175,4.4208,4.4251,4.4273,4.4324,4.4353,4.4394,4.4387,4.4335,4.4497,4.4424,4.45,4.4501,4.4535,4.4533,4.4757,4.4555,4.4554,4.4554,4.4554,0,4.4027,4.4107,4.4098,4.4152,4.4241,4.4224,4.4314,4.4324,4.435,4.4407,4.4374,4.4429,4.4415,4.447,4.4465,4.4556,4.4569,4.4572,4.457,4.4575,4.4575,4.4595,4.4585,4.456,4.4559,4.4557,4.4556,0,4.4188,4.4185,4.4278,4.4302,4.431,4.4375,4.4396,4.4448,4.4451,4.4524,4.454,4.4545,4.4609,4.4606,4.4678,4.4675,4.4787,4.4772,4.4776,4.4773,4.485,4.4843,4.5094,4.5128,4.4903,4.4905,4.4907,0,4.4292,4.4353,4.4384,4.4419,4.4438,4.4496,4.453,4.4517,4.4555,4.4598,4.4647,4.4707,4.4755,4.486,4.4871,4.4927,4.4914,4.4999,4.4922,4.4927,4.4917,4.4914,4.4921,4.5013,4.5016,4.5018,4.502,0,4.4479,4.4475,4.4525,4.4577,4.4619,4.4659,4.4695,4.4727,4.4718,4.4763,4.4828,4.4865,4.494,4.5002,4.5056,4.5074,4.5047,4.5044,4.5065,4.5071,4.5071,4.5073,4.4818,4.5038,4.5036,4.5035,4.5034,4.5033,4.4615,4.4668,4.4699,4.4757,4.4784,4.482,4.4871,4.4881,4.4935,4.4994,4.4984,4.5058,4.5092,4.5163,4.5187,4.5246,4.5215,4.5245,4.5253,4.526,4.527,4.5062,4.5255,4.5255,4.5254,4.5254,4.5254,0,4.48,4.4819,4.4873,4.4926,4.4973,4.4943,4.4983,4.5025,4.509,4.5124,4.5173,4.5249,4.531,4.5328,4.5387,4.5432,4.5421,4.5448,4.5444,4.545,4.5292,4.5269,4.5456,4.5456,4.5456,4.5456,4.5456,4.5456,4.4902,4.4991,4.4993,4.5096,4.5115,4.5186,4.5212,4.5246,4.5274,4.5361,4.5411,4.5422,4.5451,4.5513,4.5569,4.5573,4.5597,4.5629,4.5628,4.5481,4.546,4.5441,4.5419,4.5634,4.5635,4.5781,4.5782,4.5783]},{"header":{"parameterUnit":"m.s-1","parameterCategory":1,"la1":30.2991,"la2":30.254,"lo1":-89.0895,"lo2":-89.0444,"dy":0.0017,"dx":0.0017,"nx":28,"ny":28,"refTime":"2026-02-05T09:00:00:Z","depth":0,"parameterNumber":3,"parameterNumberName":"V-component_of_WINDS"},"data":[0,0,0,0,0,0,0,0,0,0,0,0,0,0,0,0,0,0,0,0,0,0,0,0,0,0,0,0,0,0,0,0,0,0,0,0,0,0,0,0,0,0,0,0,0,0,0,0,0,0,0,0,0,0,0,0,0,0,0.8943,0.8944,0,0.9063,0.9064,0.9065,0.9103,0.9103,0.9102,0.9102,0.9225,0.9228,0.9232,0,0,0,0,0,0,0,0,0,0,0,0,0,0.8746,0.875,0.8942,0.8944,0.8945,0.9062,0.9064,0.9066,0.9104,0.9103,0.9102,0.9102,0.9223,0.9228,0.9232,0,0,0,0,0,0,0,0,0,0,0,0,0,0.8845,0.8751,0.8942,0.8978,0.8983,0.9062,0.9064,0.9066,0.9104,0.9103,0.9102,0.9101,0.9222,0.9227,0.9233,0.9285,0,0,0.925,0.9253,0,0,0,0,0,0,0,0,0.884,0.8853,0.8972,0.8976,0.8981,0.9067,0.904,0.9139,0.9104,0.9058,0.9102,0.9101,0.9173,0.9183,0.9207,0.929,0.9296,0.9251,0.9254,0.9257,0.9258,0,0,0,0,0,0,0,0.8833,0.8848,0.899,0.8973,0.8979,0.8989,0.9002,0.9059,0.9119,0.9062,0.9065,0.9079,0.9175,0.9201,0.921,0.9298,0.9251,0.9256,0.9259,0.9262,0.943,0.9431,0,0,0,0,0,0,0.882,0.8842,0.8986,0.8994,0.8907,0.8993,0.9008,0.904,0.9118,0.9129,0.9079,0.908,0.9192,0.9203,0.9215,0.928,0.9257,0.9262,0.9265,0.9428,0.943,0.9431,0,0,0,0,0,0,0.8815,0.8832,0.8981,0.8918,0.8938,0.8997,0.9034,0.9043,0.9069,0.9131,0.9142,0.9095,0.9192,0.9207,0.9267,0.9285,0.9265,0.927,0.9427,0.9429,0.943,0.9412,0,0,0,0,0,0,0.881,0.883,0.8851,0.8919,0.8941,0.9032,0.9035,0.9046,0.9079,0.9081,0.9149,0.9159,0.9192,0.9258,0.9273,0.9292,0.9274,0.9426,0.9428,0.943,0.9411,0.9412,0.9414,0,0,0,0,0,0.8802,0.8841,0.8851,0.8869,0.8968,0.9033,0.9046,0.9083,0.908,0.9101,0.9141,0.9157,0.9281,0.9264,0.9281,0.9302,0.9425,0.9427,0.943,0.941,0.9412,0.9414,0,0,0,0,0,0,0.8773,0.885,0.8863,0.8924,0.8972,0.9039,0.9066,0.9084,0.9133,0.9133,0.9178,0.9192,0.925,0.9282,0.9262,0.9357,0.9354,0.9359,0.9333,0.9335,0.9337,0.9328,0.9279,0,0,0,0,0,0.8774,0.882,0.8885,0.8933,0.8956,0.9007,0.9036,0.9061,0.9112,0.9132,0.9177,0.9225,0.9275,0.9307,0.9356,0.9416,0.9431,0.9439,0.944,0.9441,0.9446,0.9479,0.9484,0.9439,0.9439,0.9439,0,0,0.8776,0.8824,0.885,0.8928,0.8968,0.9014,0.9023,0.9073,0.9108,0.914,0.92,0.9234,0.9291,0.9351,0.938,0.938,0.9461,0.9444,0.9444,0.9449,0.9482,0.9486,0.949,0.944,0.944,0.944,0,0,0.8803,0.8844,0.8888,0.8928,0.8988,0.9021,0.9032,0.9097,0.9121,0.9181,0.9206,0.9249,0.9334,0.9374,0.9405,0.9447,0.9464,0.9462,0.9469,0.9502,0.9505,0.9509,0.9524,0.9529,0.9466,0.9466,0.9466,0,0.8798,0.887,0.8909,0.8957,0.8991,0.9022,0.9067,0.9103,0.9176,0.9199,0.9198,0.9305,0.9346,0.9416,0.9426,0.945,0.9464,0.9455,0.9502,0.9505,0.9509,0.9524,0.9529,0.9466,0.9466,0.9466,0.9466,0,0.886,0.891,0.8938,0.9008,0.9045,0.9091,0.9137,0.917,0.9191,0.9225,0.9287,0.9337,0.9396,0.9415,0.9436,0.9488,0.9486,0.9493,0.9491,0.9512,0.9527,0.9533,0.9465,0.9465,0.9465,0.9465,0,0,0.8873,0.8963,0.8973,0.9005,0.9074,0.9112,0.916,0.9219,0.9246,0.9295,0.9336,0.9407,0.9414,0.9449,0.9476,0.9504,0.9535,0.9508,0.951,0.9511,0.9594,0.9589,0.9595,0.9546,0.9547,0.9548,0.9589,0,0.8909,0.8996,0.9032,0.9102,0.9148,0.9178,0.922,0.9266,0.9299,0.9343,0.9379,0.9429,0.9434,0.9456,0.9485,0.9524,0.9552,0.9522,0.9584,0.9586,0.9569,0.9602,0.9597,0.9633,0.9595,0.9596,0.9597,0,0.8963,0.9012,0.9086,0.9149,0.917,0.9207,0.9264,0.9305,0.9358,0.938,0.942,0.9444,0.9496,0.949,0.9561,0.954,0.9568,0.9591,0.9593,0.96,0.9593,0.9611,0.9646,0.9651,0.9607,0.9606,0.9605,0,0.8964,0.9049,0.9105,0.9131,0.9206,0.9231,0.9263,0.9316,0.9349,0.9398,0.942,0.9475,0.9505,0.9547,0.9585,0.9578,0.9653,0.965,0.9672,0.9671,0.9687,0.9685,0.9727,0.9704,0.9704,0.9704,0.9704,0,0.9001,0.9045,0.9107,0.9141,0.9191,0.9233,0.9282,0.9316,0.9363,0.9404,0.9433,0.9471,0.9521,0.9565,0.9596,0.965,0.9663,0.9682,0.969,0.9679,0.9677,0.9698,0.9697,0.9706,0.9705,0.9705,0.9705,0,0.9011,0.9054,0.9117,0.9182,0.92,0.9234,0.929,0.9325,0.9359,0.9411,0.9425,0.9479,0.9532,0.9575,0.9645,0.9666,0.9723,0.9731,0.9705,0.9709,0.9728,0.9726,0.9785,0.9795,0.9765,0.9766,0.9766,0,0.9032,0.9066,0.9136,0.9166,0.9198,0.9245,0.9279,0.9322,0.9356,0.9419,0.9445,0.9501,0.9548,0.9632,0.9677,0.9731,0.9741,0.9758,0.9749,0.9738,0.9741,0.9739,0.9742,0.9759,0.9759,0.9759,0.9759,0,0.9063,0.9083,0.9131,0.9186,0.9225,0.9271,0.9317,0.934,0.9391,0.9427,0.9483,0.9519,0.9591,0.9646,0.9704,0.9737,0.9757,0.9762,0.977,0.976,0.9743,0.9752,0.9707,0.976,0.976,0.976,0.976,0.976,0.908,0.9112,0.9166,0.9218,0.9257,0.93,0.9335,0.9374,0.9421,0.9482,0.9505,0.9561,0.9614,0.9694,0.9727,0.9772,0.9774,0.9785,0.9788,0.979,0.9789,0.9735,0.9783,0.9783,0.9783,0.9783,0.9783,0,0.9113,0.9149,0.9197,0.926,0.9301,0.9316,0.9368,0.9401,0.9451,0.9498,0.9544,0.9607,0.9661,0.971,0.9766,0.9792,0.9802,0.9805,0.9804,0.9811,0.9785,0.9772,0.9796,0.9796,0.9796,0.9796,0.9796,0.9796,0.9135,0.9191,0.9217,0.9292,0.9328,0.9384,0.9412,0.9451,0.9489,0.9559,0.9604,0.9635,0.9683,0.9743,0.9792,0.9805,0.9825,0.9825,0.984,0.9815,0.9813,0.9811,0.98,0.9829,0.9829,0.9863,0.9863,0.9864]}]]